Aeronaves

Nuestra Flota

En el Centro de Instrucción de Aeronáutica Civil del Aeroclub de Mar del Plata contamos con 2 aviones Cessna 150 que es un avión biplaza  equipado con tren de aterrizaje fijo en triciclo y ala alta, diseñado originalmente para labores de entrenamiento, turismo y uso personal. 

Nuestros aviones cessna 150 son:

Cessna 150 – LV−LLD,  Biplaza tren triciclo

Cessna 150 – LV−BPG,  Biplaza tren triciclo. 

Cessna 150 – LV−CLH,  Biplaza tren triciclo. 

Cessna 172 LV – GNZ Cuatriplaza tren triciclo

Además contamos con 1 avión Piper PA 11, un avión biplaza en tándem, con ala alta, diseñado para entrenamiento y perfeccionamiento de los pilotos

Piper PA11 – LV −YJI, Biplaza tren convencional.

 

Facebook Aeroclub Mar del Plata

Informe Climatico
MAR DEL PLATA AR
Metar
SAZM 190600Z 23003KT 180V260 9999 BKN015 BKN100 BKN200 20/17 Q1008

06:00 UTC

Wind: 230° 3kt

Visibility: 9999 m

Sky: BKN 1500 ft

Temp: 20 deg C / 68 deg F

Dewpoint: 17 deg C / 62.6 deg F

Pressure: 1008 hPa

TAF
TAF SAZM 190500Z 1906/2006 32010KT 9999 SCT020 FEW040CB BKN060 TX21/1918Z TN12/1910Z PROB30 TEMPO 1907/1911 23005KT 7000 SHRA FEW040CB BKN050 BECMG 1912/1915 16010KT 9999 SCT020 BECMG 1921/1923 24015KT
1
Hola ¿ En qué podemos ayudarte? Puedes consultarnos sobre nuestras actividades aquí...
Powered by